• In Hungary
  • List of Countries
  • For 7 days
  • Water Temperature
  • Satellite Maps
  • Weather Map
  • News
  • Weather Widgets
  • user-avatar
    Login

    Hourly Weather Shusha

    Today, 20 January, Saturday

    Time Temperature Precipitation Wind Pressure Humidity
    00:00 +3°C° 0 mm 1 mps 654 mmHg 71%
    01:00 +3°C° 0.4 mm 1 mps 654 mmHg 73%
    02:00 +3°C° 0.4 mm 1 mps 654 mmHg 75%
    03:00 +3°C° 0 mm 1 mps 654 mmHg 80%
    04:00 +3°C° 0.3 mm 1 mps 654 mmHg 81%
    05:00 +2°C° 0.3 mm 1 mps 655 mmHg 82%
    06:00 +1°C° 0.3 mm 0 mps 655 mmHg 83%
    07:00 +1°C° 0 mm 0 mps 656 mmHg 81%
    08:00 +3°C° 0 mm 1 mps 657 mmHg 79%
    09:00 +4°C° 0 mm 1 mps 657 mmHg 78%
    10:00 +4°C° 0.1 mm 1 mps 658 mmHg 76%
    11:00 +5°C° 0.1 mm 1 mps 658 mmHg 73%
    12:00 +4°C° 0.1 mm 2 mps 659 mmHg 71%
    13:00 +4°C° 0.1 mm 2 mps 659 mmHg 70%
    14:00 +4°C° 0.1 mm 2 mps 659 mmHg 70%
    15:00 +5°C° 0.1 mm 2 mps 660 mmHg 70%
    16:00 +5°C° 0 mm 1 mps 660 mmHg 73%
    17:00 +4°C° 0 mm 1 mps 660 mmHg 77%
    18:00 +3°C° 0 mm 1 mps 660 mmHg 81%
    19:00 +3°C° 0 mm 1 mps 660 mmHg 80%
    20:00 +2°C° 0 mm 1 mps 661 mmHg 79%
    21:00 +2°C° 0 mm 1 mps 661 mmHg 79%
    22:00 +2°C° 0 mm 1 mps 661 mmHg 77%
    23:00 +1°C° 0 mm 1 mps 661 mmHg 76%

    Tomorrow, 21 January, Sunday

    Time Temperature Precipitation Wind Pressure Humidity
    00:00 +1°C° 0 mm 1 mps 661 mmHg 75%
    01:00 +1°C° 0 mm 1 mps 661 mmHg 74%
    02:00 -1°C° 0 mm 2 mps 661 mmHg 73%
    03:00 -1°C° 0 mm 2 mps 661 mmHg 72%
    04:00 -1°C° 0 mm 2 mps 660 mmHg 70%
    05:00 -1°C° 0 mm 2 mps 660 mmHg 69%
    06:00 -1°C° 0 mm 2 mps 660 mmHg 67%
    07:00 +2°C° 0 mm 1 mps 660 mmHg 64%
    08:00 +3°C° 0 mm 1 mps 661 mmHg 62%
    09:00 +4°C° 0 mm 1 mps 661 mmHg 59%
    10:00 +5°C° 0 mm 1 mps 661 mmHg 56%
    11:00 +6°C° 0 mm 1 mps 661 mmHg 53%
    12:00 +7°C° 0 mm 2 mps 660 mmHg 49%
    13:00 +7°C° 0 mm 2 mps 660 mmHg 49%
    14:00 +7°C° 0 mm 2 mps 660 mmHg 49%
    15:00 +7°C° 0 mm 2 mps 660 mmHg 49%
    16:00 +6°C° 0 mm 2 mps 660 mmHg 52%
    17:00 +4°C° 0 mm 2 mps 660 mmHg 55%
    18:00 +3°C° 0 mm 2 mps 660 mmHg 58%
    19:00 +3°C° 0 mm 2 mps 660 mmHg 55%
    20:00 +3°C° 0 mm 2 mps 660 mmHg 52%
    21:00 +2°C° 0 mm 3 mps 660 mmHg 49%
    22:00 +2°C° 0 mm 3 mps 660 mmHg 47%
    23:00 +2°C° 0 mm 2 mps 660 mmHg 45%

    Day after tomorrow, 22 January, Monday

    Time Temperature Precipitation Wind Pressure Humidity
    00:00 +2°C° 0 mm 2 mps 660 mmHg 43%
    01:00 +2°C° 0 mm 2 mps 659 mmHg 42%
    02:00 +2°C° 0 mm 2 mps 659 mmHg 42%
    03:00 +2°C° 0 mm 2 mps 659 mmHg 41%
    04:00 +2°C° 0 mm 2 mps 659 mmHg 41%
    05:00 +2°C° 0 mm 2 mps 658 mmHg 41%
    06:00 +2°C° 0 mm 2 mps 658 mmHg 40%
    07:00 +4°C° 0 mm 1 mps 658 mmHg 40%
    08:00 +5°C° 0 mm 1 mps 658 mmHg 40%
    09:00 +5°C° 0 mm 1 mps 658 mmHg 40%
    10:00 +6°C° 0 mm 1 mps 658 mmHg 40%
    11:00 +7°C° 0 mm 1 mps 658 mmHg 40%
    12:00 +7°C° 0 mm 2 mps 657 mmHg 40%
    13:00 +7°C° 0 mm 2 mps 657 mmHg 42%
    14:00 +7°C° 0 mm 2 mps 656 mmHg 44%
    15:00 +7°C° 0 mm 2 mps 655 mmHg 46%
    16:00 +7°C° 0 mm 1 mps 655 mmHg 49%
    17:00 +5°C° 0 mm 1 mps 655 mmHg 51%
    18:00 +4°C° 0 mm 1 mps 654 mmHg 54%
    19:00 +4°C° 0 mm 1 mps 654 mmHg 52%
    20:00 +2°C° 0 mm 2 mps 654 mmHg 50%
    21:00 +2°C° 0 mm 2 mps 654 mmHg 48%
    22:00 +2°C° 0 mm 2 mps 654 mmHg 46%
    23:00 +2°C° 0 mm 2 mps 653 mmHg 45%

    23 January, Tuesday

    Time Temperature Precipitation Wind Pressure Humidity
    00:00 +2°C° 0 mm 2 mps 653 mmHg 43%
    01:00 +1°C° 0 mm 2 mps 653 mmHg 42%
    02:00 +1°C° 0 mm 2 mps 653 mmHg 41%
    03:00 +1°C° 0 mm 2 mps 653 mmHg 40%
    04:00 +1°C° 0 mm 2 mps 653 mmHg 39%
    05:00 0°C° 0 mm 3 mps 653 mmHg 39%
    06:00 0°C° 0 mm 3 mps 653 mmHg 39%
    07:00 +2°C° 0 mm 2 mps 653 mmHg 38%
    08:00 +3°C° 0 mm 2 mps 653 mmHg 37%
    09:00 +4°C° 0 mm 2 mps 654 mmHg 36%
    10:00 +6°C° 0 mm 2 mps 654 mmHg 33%
    11:00 +7°C° 0 mm 2 mps 654 mmHg 30%
    12:00 +9°C° 0 mm 2 mps 654 mmHg 27%
    13:00 +9°C° 0 mm 2 mps 654 mmHg 28%
    14:00 +9°C° 0 mm 2 mps 654 mmHg 29%
    15:00 +9°C° 0 mm 2 mps 653 mmHg 30%
    16:00 +7°C° 0 mm 2 mps 653 mmHg 34%
    17:00 +7°C° 0 mm 1 mps 653 mmHg 37%
    18:00 +5°C° 0 mm 1 mps 653 mmHg 40%
    19:00 +5°C° 0 mm 1 mps 653 mmHg 41%
    20:00 +5°C° 0 mm 1 mps 653 mmHg 41%
    21:00 +4°C° 0 mm 1 mps 653 mmHg 42%
    22:00 +4°C° 0 mm 1 mps 653 mmHg 42%
    23:00 +4°C° 0 mm 1 mps 653 mmHg 43%

    24 January, Wednesday

    Time Temperature Precipitation Wind Pressure Humidity
    00:00 +4°C° 0 mm 1 mps 653 mmHg 43%
    01:00 +4°C° 0 mm 1 mps 653 mmHg 44%
    02:00 +4°C° 0 mm 1 mps 652 mmHg 45%
    03:00 +4°C° 0 mm 1 mps 652 mmHg 46%
    04:00 +4°C° 0 mm 1 mps 653 mmHg 47%
    05:00 +4°C° 0 mm 1 mps 653 mmHg 49%
    06:00 +3°C° 0 mm 1 mps 653 mmHg 50%
    07:00 +4°C° 0 mm 1 mps 653 mmHg 50%
    08:00 +4°C° 0 mm 1 mps 654 mmHg 50%
    09:00 +5°C° 0 mm 1 mps 655 mmHg 50%
    10:00 +6°C° 0 mm 1 mps 655 mmHg 48%
    11:00 +5°C° 0 mm 2 mps 655 mmHg 46%
    12:00 +6°C° 0 mm 2 mps 656 mmHg 45%
    13:00 +6°C° 0 mm 2 mps 656 mmHg 45%
    14:00 +6°C° 0 mm 2 mps 656 mmHg 46%
    15:00 +6°C° 0 mm 2 mps 656 mmHg 46%
    16:00 +5°C° 0 mm 2 mps 656 mmHg 51%
    17:00 +4°C° 0 mm 2 mps 656 mmHg 56%
    18:00 +4°C° 0 mm 1 mps 657 mmHg 61%
    19:00 +3°C° 0 mm 1 mps 657 mmHg 62%
    20:00 +3°C° 0 mm 1 mps 657 mmHg 62%
    21:00 +3°C° 0 mm 1 mps 658 mmHg 63%
    22:00 +2°C° 0 mm 1 mps 658 mmHg 64%
    23:00 +2°C° 0 mm 1 mps 658 mmHg 65%

    25 January, Thursday

    Time Temperature Precipitation Wind Pressure Humidity
    00:00 +1°C° 0 mm 0 mps 659 mmHg 66%
    01:00 0°C° 0 mm 0 mps 659 mmHg 68%
    02:00 0°C° 0 mm 0 mps 659 mmHg 70%
    03:00 -1°C° 0 mm 0 mps 659 mmHg 72%
    04:00 -1°C° 0 mm 0 mps 660 mmHg 73%
    05:00 -1°C° 0 mm 0 mps 660 mmHg 74%
    06:00 -1°C° 0 mm 0 mps 660 mmHg 76%
    07:00 0°C° 0 mm 1 mps 661 mmHg 73%
    08:00 +1°C° 0 mm 1 mps 661 mmHg 71%
    09:00 +2°C° 0 mm 1 mps 662 mmHg 68%
    10:00 +2°C° 0 mm 1 mps 662 mmHg 66%
    11:00 +2°C° 0 mm 2 mps 662 mmHg 63%
    12:00 +3°C° 0 mm 2 mps 662 mmHg 60%
    13:00 +3°C° 0 mm 2 mps 662 mmHg 62%
    14:00 +3°C° 0 mm 2 mps 662 mmHg 65%
    15:00 +2°C° 0 mm 3 mps 662 mmHg 67%
    16:00 +2°C° 0.1 mm 2 mps 662 mmHg 73%
    17:00 +1°C° 0.1 mm 2 mps 662 mmHg 78%
    18:00 -1°C° 0.1 mm 2 mps 662 mmHg 84%
    19:00 -1°C° 0.1 mm 2 mps 662 mmHg 86%
    20:00 -1°C° 0.1 mm 2 mps 662 mmHg 87%
    21:00 -2°C° 0.1 mm 2 mps 663 mmHg 88%
    22:00 -2°C° 0.1 mm 2 mps 663 mmHg 89%
    23:00 -2°C° 0.1 mm 2 mps 663 mmHg 89%
    Show more